sat.trackr.live / text

‹ back to catalog

STARLINK-35263

NORAD 65597 · 2025-207F

PAYLOAD ACTIVE UNKNOWN

§ Identity

Operator
Country
US
Launch date
2025-09-13
Launch site
AFWTR
Launch vehicle
Mass (kg)
RCS (m²)

Purposes: comms

External: N2YO · Heavens-Above · Gunter

§ Orbital elements

Epoch: 2026-05-25T03:11:46.752000Z

Period
95.64 min
Inclination
97.4542°
Eccentricity
0.0001996
Mean motion
15.05626532 rev/d
Perigee alt
548.2 km
Apogee alt
551.0 km
Semi-major
6,927.7 km
B*
-7.2171e-4
RAAN
213.6429°
Arg perigee
197.9744°
Mean anomaly
162.1412°
Rev number
3,976

§ Raw data

STARLINK-352631 65597U 25207F   26145.13318000 -.00010450  00000+0 -72171-3 0  99942 65597  97.4542 213.6429 0001996 197.9744 162.1412 15.05626532 39765

JSON: /api/v1/satellites/65597 · /tle

For live sub-satellite position, see the globe view (requires WebGL).

§ Visibility from observer

Set your observer location to see the next 7 days of passes ≥ 10°. The values pass through the URL so the page stays shareable.

No JS? Fill the form by hand. The geolocation button needs JavaScript.